| time (UTC) | temp C | wind direction | speed KPH | gust KPH | rain 1hr cm | rain 24hr cm | rain mn cm | humidity % | barometer mb |
| 20260507033049 | 11 | 322 | 11.3 | 24.1 | 0.00 | 0.00 | 0.00 | 92 | 1019.5 |
| 20260507031540 | 11 | 222 | 9.7 | 24.1 | 0.00 | 0.00 | 0.00 | 92 | 1019.2 |
| 20260507030041 | 11 | 158 | 9.7 | 27.4 | 0.00 | 0.00 | 0.00 | 91 | 1019.1 |
| 20260507024545 | 12 | 258 | 12.9 | 27.4 | 0.00 | 0.00 | 0.00 | 91 | 1019.2 |
| 20260507023033 | 12 | 205 | 9.7 | 24.1 | 0.00 | 0.00 | 0.00 | 90 | 1019.1 |
| 20260507021539 | 12 | 195 | 12.9 | 25.7 | 0.00 | 0.00 | 0.00 | 90 | 1019.2 |
| 20260507020041 | 12 | 177 | 9.7 | 24.1 | 0.00 | 0.00 | 0.00 | 89 | 1019.2 |
| 20260507014538 | 12 | 214 | 11.3 | 30.6 | 0.00 | 0.00 | 0.00 | 88 | 1019.1 |
| 20260507013039 | 12 | 186 | 14.5 | 30.6 | 0.00 | 0.00 | 0.00 | 87 | 1019.2 |
| 20260507011538 | 13 | 230 | 12.9 | 27.4 | 0.00 | 0.00 | 0.00 | 85 | 1019.2 |
| 20260507010040 | 13 | 221 | 11.3 | 29.0 | 0.00 | 0.00 | 0.00 | 85 | 1019.3 |
| 20260507004539 | 13 | 231 | 17.7 | 27.4 | 0.00 | 0.00 | 0.00 | 84 | 1019.3 |
| 20260507003039 | 13 | 186 | 14.5 | 33.8 | 0.00 | 0.00 | 0.00 | 84 | 1019.3 |
| 20260507001604 | 13 | 141 | 17.7 | 29.0 | 0.00 | 0.00 | 0.00 | 83 | 1019.3 |
| 20260507000043 | 15 | 203 | 8.0 | 29.0 | 0.00 | 0.00 | 0.00 | 82 | 1019.4 |
| 20260506234552 | 14 | 175 | 16.1 | 35.4 | 0.00 | 0.00 | 0.00 | 82 | 1019.5 |
| 20260506233039 | 15 | 244 | 8.0 | 30.6 | 0.00 | 0.00 | 0.00 | 81 | 1019.6 |
| 20260506231538 | 15 | 197 | 14.5 | 30.6 | 0.00 | 0.00 | 0.00 | 81 | 1019.5 |
| 20260506230039 | 15 | 200 | 14.5 | 29.0 | 0.00 | 0.00 | 0.00 | 80 | 1019.7 |
| 20260506224544 | 15 | 203 | 17.7 | 30.6 | 0.00 | 0.00 | 0.00 | 81 | 1019.9 |
| 20260506223042 | 15 | 162 | 9.7 | 32.2 | 0.00 | 0.00 | 0.00 | 79 | 1020.2 |
| 20260506221539 | 16 | 200 | 8.0 | 24.1 | 0.00 | 0.00 | 0.00 | 77 | 1020.2 |
| 20260506220045 | 16 | 215 | 14.5 | 25.7 | 0.00 | 0.00 | 0.00 | 76 | 1020.4 |
| 20260506214537 | 17 | 224 | 6.4 | 16.1 | 0.00 | 0.00 | 0.00 | 75 | 1020.6 |
| 20260506213035 | 16 | 185 | 9.7 | 25.7 | 0.00 | 0.00 | 0.00 | 76 | 1020.6 |
| 20260506211550 | 16 | 202 | 11.3 | 24.1 | 0.00 | 0.00 | 0.00 | 76 | 1020.7 |
| 20260506210041 | 17 | 209 | 4.8 | 20.9 | 0.00 | 0.00 | 0.00 | 76 | 1020.7 |
| 20260506204539 | 17 | 180 | 11.3 | 19.3 | 0.00 | 0.00 | 0.00 | 75 | 1020.7 |
| 20260506203036 | 17 | 221 | 9.7 | 22.5 | 0.00 | 0.00 | 0.00 | 73 | 1020.8 |
| 20260506201542 | 17 | 266 | 4.8 | 19.3 | 0.00 | 0.00 | 0.00 | 72 | 1021.0 |
| 20260506200041 | 18 | 302 | 3.2 | 17.7 | 0.00 | 0.00 | 0.00 | 69 | 1021.1 |
| 20260506194544 | 19 | 302 | 6.4 | 12.9 | 0.00 | 0.00 | 0.00 | 68 | 1021.2 |
| 20260506193045 | 18 | 336 | 6.4 | 19.3 | 0.00 | 0.00 | 0.00 | 68 | 1021.3 |
| 20260506191537 | 19 | 1 | 6.4 | 11.3 | 0.00 | 0.00 | 0.00 | 68 | 1021.4 |
| 20260506190037 | 18 | 340 | 3.2 | 8.0 | 0.00 | 0.00 | 0.00 | 70 | 1021.5 |
| 20260506184540 | 18 | 1 | 1.6 | 12.9 | 0.00 | 0.00 | 0.00 | 70 | 1021.5 |
| 20260506183042 | 17 | 185 | 3.2 | 12.9 | 0.00 | 0.00 | 0.00 | 74 | 1021.6 |
| 20260506181554 | 17 | 170 | 4.8 | 12.9 | 0.00 | 0.00 | 0.00 | 73 | 1021.5 |
| 20260506180037 | 16 | 148 | 3.2 | 14.5 | 0.00 | 0.00 | 0.00 | 76 | 1021.5 |
| 20260506174538 | 17 | 141 | 3.2 | 12.9 | 0.00 | 0.00 | 0.00 | 71 | 1021.4 |
| 20260506173105 | 17 | 168 | 1.6 | 8.0 | 0.00 | 0.00 | 0.00 | 72 | 1021.5 |
| 20260506171546 | 16 | 220 | 4.8 | 12.9 | 0.00 | 0.00 | 0.00 | 76 | 1021.5 |
| 20260506170039 | 16 | 0 | 4.8 | 11.3 | 0.00 | 0.00 | 0.00 | 74 | 1021.5 |
| 20260506164536 | 16 | 0 | 1.6 | 9.7 | 0.00 | 0.00 | 0.00 | 75 | 1021.6 |
| 20260506163041 | 17 | 310 | 3.2 | 9.7 | 0.00 | 0.00 | 0.00 | 73 | 1021.5 |
| 20260506161541 | 16 | 0 | 0.0 | 3.2 | 0.00 | 0.00 | 0.00 | 76 | 1021.6 |
| 20260506160046 | 15 | 333 | 0.0 | 8.0 | 0.00 | 0.00 | 0.00 | 80 | 1021.4 |
| 20260506154541 | 13 | 2 | 1.6 | 6.4 | 0.00 | 0.00 | 0.00 | 81 | 1021.6 |
| 20260506153036 | 14 | 337 | 3.2 | 8.0 | 0.00 | 0.00 | 0.00 | 80 | 1021.5 |
| 20260506151545 | 14 | 310 | 3.2 | 11.3 | 0.00 | 0.00 | 0.00 | 80 | 1021.4 |
| 20260506150045 | 14 | 0 | 1.6 | 6.4 | 0.00 | 0.00 | 0.00 | 82 | 1021.3 |
| 20260506144543 | 13 | 257 | 1.6 | 11.3 | 0.00 | 0.00 | 0.00 | 85 | 1021.2 |
| 20260506143038 | 13 | 208 | 3.2 | 12.9 | 0.00 | 0.00 | 0.00 | 86 | 1021.2 |
| 20260506141542 | 12 | 158 | 3.2 | 11.3 | 0.00 | 0.00 | 0.00 | 87 | 1020.9 |
| 20260506140043 | 12 | 200 | 3.2 | 11.3 | 0.00 | 0.00 | 0.00 | 88 | 1020.8 |
| 20260506134546 | 11 | 0 | 0.0 | 4.8 | 0.00 | 0.00 | 0.00 | 88 | 1020.7 |
| 20260506133039 | 11 | 0 | 0.0 | 6.4 | 0.00 | 0.00 | 0.00 | 88 | 1020.7 |
| 20260506131546 | 11 | 262 | 0.0 | 6.4 | 0.00 | 0.00 | 0.00 | 89 | 1020.7 |
| 20260506130040 | 11 | 0 | 0.0 | 3.2 | 0.00 | 0.00 | 0.00 | 89 | 1020.6 |
| 20260506124542 | 11 | 244 | 0.0 | 4.8 | 0.00 | 0.00 | 0.00 | 89 | 1020.4 |
| 20260506123041 | 11 | 279 | 0.0 | 4.8 | 0.00 | 0.00 | 0.00 | 89 | 1020.4 |
| 20260506121538 | 11 | 0 | 1.6 | 8.0 | 0.00 | 0.00 | 0.00 | 89 | 1020.3 |
| 20260506120039 | 11 | 0 | 0.0 | 6.4 | 0.00 | 0.00 | 0.00 | 89 | 1020.3 |
| 20260506114535 | 11 | 0 | 0.0 | 6.4 | 0.00 | 0.00 | 0.00 | 89 | 1020.2 |
| 20260506113041 | 11 | 220 | 0.0 | 4.8 | 0.00 | 0.00 | 0.00 | 89 | 1020.0 |
| 20260506111538 | 11 | 0 | 0.0 | 6.4 | 0.00 | 0.00 | 0.00 | 90 | 1020.0 |
| 20260506110037 | 11 | 347 | 1.6 | 6.4 | 0.00 | 0.00 | 0.00 | 91 | 1019.8 |
| 20260506104535 | 11 | 333 | 0.0 | 4.8 | 0.00 | 0.00 | 0.00 | 91 | 1019.7 |
| 20260506103039 | 11 | 316 | 0.0 | 8.0 | 0.00 | 0.00 | 0.00 | 91 | 1019.8 |
| 20260506101537 | 11 | 340 | 1.6 | 6.4 | 0.00 | 0.00 | 0.00 | 91 | 1019.6 |
| 20260506100040 | 11 | 338 | 1.6 | 4.8 | 0.00 | 0.00 | 0.00 | 90 | 1019.7 |
| 20260506094547 | 11 | 311 | 0.0 | 4.8 | 0.00 | 3.73 | 0.00 | 89 | 1019.8 |
| 20260506093039 | 11 | 0 | 3.2 | 8.0 | 0.00 | 3.73 | 0.00 | 89 | 1019.7 |
| 20260506091543 | 11 | 328 | 1.6 | 8.0 | 0.00 | 3.73 | 0.00 | 88 | 1019.7 |
| 20260506090041 | 11 | 0 | 0.0 | 9.7 | 0.00 | 3.73 | 0.00 | 88 | 1019.7 |
| 20260506084542 | -17 | 0 | 0.0 | 3.2 | 0.00 | 3.81 | 0.00 | 1019.7 | |
| 20260506083037 | 12 | 0 | 0.0 | 1.6 | 0.00 | 3.81 | 0.00 | 100 | 1019.7 |
| 20260506081535 | 12 | 0 | 0.0 | 4.8 | 0.00 | 3.81 | 0.00 | 100 | 1019.8 |
| 20260506073040 | 12 | 0 | 0.0 | 1.6 | 0.00 | 3.91 | 0.00 | 100 | 1019.6 |
| 20260506071538 | 12 | 337 | 0.0 | 4.8 | 0.00 | 3.91 | 0.00 | 100 | 1019.5 |
| 20260506061539 | 12 | 0 | 0.0 | 3.2 | 0.00 | 3.96 | 3.91 | 100 | 1019.1 |
| 20260506044541 | 12 | 303 | 0.0 | 9.7 | 0.00 | 4.09 | 3.91 | 100 | 1018.6 |
| 20260506043036 | 12 | 0 | 0.0 | 6.4 | 0.00 | 4.09 | 3.91 | 100 | 1018.5 |
| 20260506041541 | 12 | 316 | 0.0 | 3.2 | 0.00 | 4.09 | 3.91 | 100 | 1018.4 |
| 20260506040042 | 12 | 310 | 1.6 | 8.0 | 0.00 | 4.09 | 3.91 | 100 | 1018.0 |
| 20260506034539 | 12 | 277 | 0.0 | 9.7 | 0.00 | 4.09 | 3.91 | 100 | 1017.9 |